Location: Perryvale
(54.4667°N, 113.3833°W)
Time: 00:38:12
(UTC+00:00)

Vanguard 1 - Pass Details

Date: 26 May 2024
Orbit: 652 x 3825 km, 34.2° (Epoch: 13 June)

Event Time Altitude Azimuth Distance (km) Brightness Sun altitude
Rises 02:24:20 0° 202° (SSW) 4,047 13.2 9.7°
Reaches altitude 10° 02:27:54 10° 182° (S) 3,507 12.7 9.2°
Maximum altitude 02:33:30 18° 144° (SE) 3,595 12.5 8.5°
Drops below altitude 10° 02:41:07 10° 109° (ESE) 5,038 13.1 7.5°
Sets 02:48:02 0° 95° (E) 6,725 13.7 6.6°
